Vorticity
nan nan nan nan nan nan nan nan nan nan nan nan nan nan nan nan nan nan nan nan nan nan nan nan nan nan nan nan nan nan nan nan
nan 7 8 7 5 6 8 7 6 7 6 6 7 6 6 6 6 6 6 5 4 5 5 4 4 5 5 4 4 5 7 nan
nan 7 7 8 8 6 6 7 6 6 6 6 5 7 7 5 6 7 5 5 5 5 4 4 4 3 4 6 6 7 7 nan
nan 7 6 6 8 8 6 6 6 6 7 5 5 7 7 6 7 7 6 6 5 6 7 7 3 3 8 7 8 9 10 nan
nan 5 6 5 6 6 7 8 8 9 8 6 6 7 7 7 7 8 7 7 9 9 8 8 9 8 8 10 11 9 8 nan
nan 5 6 5 5 7 7 7 7 8 8 7 6 7 7 7 7 7 7 8 8 8 10 10 11 12 12 11 8 8 10 nan
nan 5 6 7 5 7 7 7 8 8 8 7 8 8 8 7 7 7 7 8 8 8 9 9 8 10 12 10 7 8 10 nan
nan 8 8 7 7 8 7 8 8 8 8 8 8 8 8 8 7 7 7 7 9 9 9 8 8 7 9 9 7 7 7 nan
nan 8 8 9 9 6 8 8 8 8 8 8 8 9 8 8 7 8 8 9 9 8 8 9 8 7 7 6 7 7 7 nan
nan 7 9 9 10 9 9 9 8 7 7 7 8 9 10 9 9 9 8 8 8 8 8 8 8 9 8 7 7 7 7 nan
nan 9 9 8 6 7 8 8 10 11 8 7 7 8 10 9 9 9 8 8 8 7 7 9 9 8 8 8 7 8 7 nan
nan 9 10 6 4 5 6 7 6 7 9 8 7 8 8 10 10 8 8 8 7 8 8 9 10 8 6 5 7 10 10 nan
nan 9 7 5 5 5 6 8 3 5 8 7 7 9 9 8 8 7 9 7 8 7 8 8 9 6 2 3 4 6 8 nan
nan 9 8 7 9 9 11 8 8 9 6 6 7 5 6 8 9 9 7 9 9 8 6 5 8 6 2 5 5 2 4 nan
nan 9 8 9 9 8 7 7 10 6 9 8 7 8 8 7 7 9 8 9 8 8 9 7 8 7 5 6 8 8 4 nan
nan 9 7 8 5 5 6 7 8 8 9 10 8 6 7 9 10 8 8 8 9 8 9 8 9 8 5 5 8 12 8 nan
nan 7 8 7 4 4 7 7 7 10 11 8 7 8 9 8 8 8 8 8 9 8 9 9 7 8 9 7 7 7 9 nan
nan 6 8 7 7 8 8 5 4 7 7 8 8 7 7 8 8 9 9 8 9 10 9 9 9 9 9 8 7 7 7 nan
nan 7 6 5 5 4 6 10 10 9 8 8 7 6 8 10 9 8 8 9 8 9 10 10 11 10 8 8 8 7 9 nan
nan nan nan nan nan nan nan nan nan nan nan nan nan nan nan nan nan nan nan nan nan nan nan nan nan nan nan nan nan nan nan nan
CAPE
1191 1376 1315 982 1123 1206 1171 1141 1146 1253 1471 1714 1829 1659 1590 1832 2054 1966 1937 1835 1821 1509 1195 1071 1076 1025 1035 1180 1160 909 1322 1159
983 1374 1528 1586 1635 1003 1047 1137 1194 1230 1283 1496 1548 1505 1582 1745 1826 1894 1849 1777 1711 1642 1513 1349 1351 1457 1435 1256 1047 553 1410 1473
743 980 1360 1591 1692 1444 1003 1099 1208 1215 1358 1486 1612 2088 2107 1971 1691 1743 1709 1536 1388 1303 1187 1072 988 971 964 969 928 1576 1932 1972
300 377 705 874 1101 1648 1784 1768 1861 1957 2001 2081 2090 2112 2066 1770 1398 1200 1184 1039 984 968 944 862 836 1378 1647 943 1655 1961 1879 1740
157 101 232 304 846 1154 1475 1697 1752 1707 1891 1874 1542 1423 1589 1457 1536 1494 1679 1010 1571 1298 1497 1569 1481 1646 1739 1700 1729 1390 1652 1723
206 95 271 174 475 359 806 957 1127 1227 1308 1073 998 1056 1140 1074 1105 901 928 958 1177 1215 1290 1313 1070 489 701 1478 1118 1365 1446 1748
330 358 424 150 140 185 259 490 762 898 712 689 717 839 917 682 496 339 235 237 426 489 544 484 661 418 666 716 467 266 298 414
635 295 287 140 115 150 416 646 697 437 344 479 431 479 389 284 190 156 149 104 129 205 245 273 363 185 40 342 323 175 137 52
670 373 83 52 83 76 355 453 188 89 2 32 70 96 103 82 61 48 20 0 0 0 0 0 0 0 7 21 23 16 8 5
649 139 15 124 385 379 182 14 1 0 0 0 0 1 1 3 3 0 0 0 0 0 0 0 0 0 0 8 4 4 2 2
759 126 14 219 36 2 1 0 0 0 1 0 0 0 0 0 0 0 0 0 0 0 0 0 0 0 6 7 3 5 4 1
946 30 20 5 4 2 2 5 3 5 2 0 0 0 0 0 0 0 0 0 0 0 0 0 0 0 2 0 2 2 6 4
1 1 3 2 3 4 1 3 2 1 0 0 0 0 0 0 0 0 0 0 0 0 0 0 0 2 0 1 1 1 0 0
2 2 4 5 2 1 0 0 0 0 0 0 0 0 0 0 0 0 0 0 0 0 0 0 0 2 1 0 3 1 1 1
2 2 2 1 0 0 0 0 0 0 0 0 0 0 0 0 0 0 0 0 0 0 0 0 0 0 0 0 2 0 1 0
2 0 0 0 0 0 0 0 0 0 0 0 0 0 0 0 0 0 0 0 0 0 0 0 0 0 0 0 0 0 3 4
1 0 0 0 0 0 0 0 0 0 0 0 0 0 0 0 0 0 0 0 0 0 0 0 0 0 0 0 0 0 0 0
1 0 0 0 0 0 0 0 0 0 0 0 0 0 0 0 0 0 0 0 0 0 0 0 0 0 0 0 0 0 0 0
1 0 0 0 0 0 0 0 0 0 0 0 0 0 0 0 0 0 0 0 0 0 0 0 0 0 0 0 0 0 0 0
0 0 0 0 0 0 0 0 0 0 0 0 0 0 0 0 0 0 0 0 0 0 0 0 0 0 0 0 0 0 0 0